Skip Page Navigation
NASA JPL Caltech
NASA Logo - Jet Propulsion Laboratory + View the NASA Portal
+ Center for Near-Earth Object Studies
JPL Home Earth Solar System Stars & Galaxies Technology
JPL Solar System Dynamics
BODIES ORBITS EPHEMERIDES TOOLS PHYSICAL DATA DISCOVERY FAQ SITE MAP
IMPORTANT: The SSD Announcement email list is now available. Major changes are coming in the near future, including possible hostname and/or URL changes. To be notified of such changes, subscribe to this email list.

Please visit this page for more details.


JPL Small-Body Database Browser
Search: [ help ]  
324143 (2005 YE112)
Classification: Main-belt Asteroid          SPK-ID: 2324143
Ephemeris | Orbit Diagram | Orbital Elements | Mission Design | Physical Parameters | Discovery Circumstances ]

[ show orbit diagram ]
Orbital Elements at Epoch 2458600.5 (2019-Apr-27.0) TDB
Reference: JPL 15 (heliocentric ecliptic J2000)
 Element Value Uncertainty (1-sigma)   Units 
e .08104699080049695 5.295e-08  
a 3.013423445714085 3.5186e-08 au
q 2.769194543431294 1.7183e-07 au
i 3.88800537095828 6.0769e-06 deg
node 114.6535714871681 6.7306e-05 deg
peri 234.0892091727206 7.5872e-05 deg
M 305.5452846452258 3.3209e-05 deg
tp 2458889.515851387578
(2020-Feb-10.01585139)
0.0001767 TDB
period 1910.683139589782
5.23
3.3465e-05
9.162e-08
d
yr
n .1884142862522412 3.3e-09 deg/d
Q 3.257652347996876 3.8038e-08 au
  Orbit Determination Parameters
   # obs. used (total)      252  
   data-arc span      6764 days (18.52 yr)  
   first obs. used      2001-02-19  
   last obs. used      2019-08-28  
   planetary ephem.      DE431  
   SB-pert. ephem.      SB431-N16  
   condition code      0  
   norm. resid. RMS      .48699  
   source      ORB  
   producer      Otto Matic  
   solution date      2019-Sep-24 06:12:52  

Additional Information
 Earth MOID = 1.76374 au 
 Jupiter MOID = 2.09492 au 
 T_jup = 3.240 
[ show covariance matrix ]

Ephemeris | Orbit Diagram | Orbital Elements | Mission Design | Physical Parameters | Discovery Circumstances ]

Physical Parameter Table
Parameter Symbol Value Units Sigma Reference Notes
absolute magnitude H 15.9   n/a MPO440497  

324143 (2005 YE112)          Discovered 2005-Dec-25 by Mt. Lemmon Survey at Mount Lemmon
Reference: 20120406/Numbers.arcLast Updated: 2012-04-09

Alternate Designations
 2005 YE112 = 2005 YR226 
Ephemeris | Orbit Diagram | Orbital Elements | Mission Design | Physical Parameters | Discovery Circumstances ]
ABOUT SSD CREDITS/AWARDS PRIVACY/COPYRIGHT GLOSSARY LINKS
FirstGov 2019-Oct-19 11:10 UT
(server date/time)  
NASA Home Page
Site Manager:   Ryan S. Park
Webmaster  Alan B. Chamberlin